| time (UTC) | temp F | wind direction | speed MPH | gust MPH | rain 1hr in | rain 24hr in | rain mn in | humidity % | barometer mb |
| 20260901233728 | 65 | 296 | 6.0 | 12.0 | 0.00 | 0.07 | 0.00 | 81 | 1008.0 |
| 20260901233228 | 65 | 226 | 3.0 | 11.0 | 0.00 | 0.07 | 0.00 | 81 | 1008.0 |
| 20260901232728 | 65 | 225 | 5.0 | 10.0 | 0.00 | 0.07 | 0.07 | 82 | 1008.0 |
| 20260901232228 | 65 | 254 | 4.0 | 9.0 | 0.00 | 0.07 | 0.07 | 82 | 1008.0 |
| 20260901231728 | 65 | 238 | 3.0 | 13.0 | 0.00 | 0.07 | 0.07 | 83 | 1008.0 |
| 20260901231228 | 64 | 215 | 2.0 | 13.0 | 0.00 | 0.07 | 0.07 | 83 | 1008.0 |
| 20260901230728 | 64 | 245 | 1.0 | 13.0 | 0.00 | 0.07 | 0.07 | 82 | 1008.0 |
| 20260901230228 | 64 | 233 | 7.0 | 11.0 | 0.00 | 0.07 | 0.07 | 82 | 1008.1 |
| 20260901225727 | 64 | 186 | 2.0 | 11.0 | 0.00 | 0.07 | 0.07 | 81 | 1008.1 |
| 20260901225228 | 65 | 329 | 5.0 | 8.0 | 0.00 | 0.07 | 0.07 | 81 | 1008.1 |
| 20260901224728 | 65 | 225 | 6.0 | 9.0 | 0.00 | 0.07 | 0.07 | 80 | 1008.1 |
| 20260901224228 | 65 | 217 | 5.0 | 9.0 | 0.00 | 0.07 | 0.07 | 80 | 1008.1 |
| 20260901223728 | 65 | 246 | 6.0 | 9.0 | 0.00 | 0.07 | 0.07 | 80 | 1008.2 |
| 20260901223228 | 65 | 214 | 2.0 | 9.0 | 0.00 | 0.07 | 0.07 | 80 | 1008.1 |
| 20260901222728 | 65 | 193 | 5.0 | 12.0 | 0.00 | 0.07 | 0.07 | 80 | 1008.1 |
| 20260901222228 | 65 | 228 | 6.0 | 12.0 | 0.00 | 0.07 | 0.07 | 80 | 1008.1 |
| 20260901221728 | 65 | 215 | 4.0 | 12.0 | 0.00 | 0.07 | 0.07 | 80 | 1008.1 |
| 20260901221228 | 66 | 313 | 4.0 | 14.0 | 0.00 | 0.07 | 0.07 | 79 | 1008.2 |
| 20260901220727 | 65 | 268 | 4.0 | 14.0 | 0.00 | 0.07 | 0.07 | 79 | 1008.1 |
| 20260901220227 | 66 | 243 | 3.0 | 14.0 | 0.00 | 0.07 | 0.07 | 79 | 1008.1 |
| 20260901215728 | 66 | 266 | 7.0 | 15.0 | 0.00 | 0.07 | 0.07 | 79 | 1008.2 |
| 20260901215227 | 66 | 246 | 9.0 | 15.0 | 0.00 | 0.07 | 0.07 | 79 | 1008.2 |
| 20260901214728 | 66 | 268 | 9.0 | 15.0 | 0.00 | 0.07 | 0.07 | 79 | 1008.1 |
| 20260901214228 | 65 | 278 | 8.0 | 13.0 | 0.00 | 0.07 | 0.07 | 80 | 1008.1 |
| 20260901213727 | 65 | 296 | 8.0 | 13.0 | 0.00 | 0.07 | 0.07 | 80 | 1008.1 |
| 20260901213227 | 65 | 280 | 6.0 | 14.0 | 0.00 | 0.07 | 0.07 | 80 | 1008.1 |
| 20260901212727 | 65 | 274 | 7.0 | 14.0 | 0.00 | 0.07 | 0.07 | 80 | 1008.1 |
| 20260901212227 | 65 | 215 | 7.0 | 14.0 | 0.00 | 0.07 | 0.07 | 80 | 1008.1 |
| 20260901211727 | 66 | 294 | 6.0 | 12.0 | 0.00 | 0.07 | 0.07 | 79 | 1008.0 |
| 20260901211227 | 66 | 211 | 5.0 | 12.0 | 0.00 | 0.07 | 0.07 | 80 | 1008.0 |
| 20260901210727 | 65 | 287 | 5.0 | 12.0 | 0.00 | 0.07 | 0.07 | 81 | 1008.0 |
| 20260901210227 | 65 | 217 | 4.0 | 9.0 | 0.00 | 0.07 | 0.07 | 82 | 1008.1 |
| 20260901205727 | 65 | 263 | 5.0 | 12.0 | 0.00 | 0.07 | 0.07 | 82 | 1008.1 |
| 20260901205227 | 65 | 252 | 0.0 | 12.0 | 0.00 | 0.07 | 0.07 | 82 | 1008.1 |
| 20260901204727 | 64 | 210 | 6.0 | 12.0 | 0.00 | 0.07 | 0.07 | 84 | 1008.0 |
| 20260901204227 | 64 | 243 | 2.0 | 8.0 | 0.00 | 0.07 | 0.07 | 85 | 1008.0 |
| 20260901203727 | 63 | 217 | 1.0 | 8.0 | 0.00 | 0.07 | 0.07 | 84 | 1008.0 |
| 20260901203227 | 63 | 224 | 0.0 | 8.0 | 0.00 | 0.07 | 0.07 | 84 | 1008.1 |
| 20260901202727 | 63 | 228 | 1.0 | 11.0 | 0.00 | 0.07 | 0.07 | 84 | 1008.1 |
| 20260901202227 | 63 | 274 | 3.0 | 11.0 | 0.00 | 0.07 | 0.07 | 84 | 1008.2 |
| 20260901201727 | 63 | 238 | 4.0 | 11.0 | 0.00 | 0.07 | 0.07 | 84 | 1008.2 |
| 20260901201227 | 63 | 252 | 6.0 | 10.0 | 0.00 | 0.07 | 0.07 | 84 | 1008.3 |
| 20260901200727 | 63 | 257 | 3.0 | 10.0 | 0.00 | 0.07 | 0.07 | 84 | 1008.3 |
| 20260901200227 | 63 | 259 | 2.0 | 11.0 | 0.00 | 0.07 | 0.07 | 84 | 1008.2 |
| 20260901195727 | 63 | 233 | 5.0 | 11.0 | 0.00 | 0.07 | 0.07 | 83 | 1008.2 |
| 20260901195228 | 64 | 257 | 4.0 | 11.0 | 0.00 | 0.07 | 0.07 | 83 | 1008.2 |
| 20260901194727 | 64 | 263 | 6.0 | 15.0 | 0.00 | 0.07 | 0.07 | 83 | 1008.2 |
| 20260901194227 | 64 | 260 | 7.0 | 15.0 | 0.00 | 0.07 | 0.07 | 83 | 1008.2 |
| 20260901193727 | 64 | 245 | 7.0 | 15.0 | 0.00 | 0.07 | 0.07 | 83 | 1008.2 |
| 20260901193227 | 64 | 243 | 6.0 | 13.0 | 0.00 | 0.07 | 0.07 | 84 | 1008.2 |
| 20260901192727 | 64 | 291 | 8.0 | 13.0 | 0.00 | 0.07 | 0.07 | 84 | 1008.2 |
| 20260901192227 | 64 | 261 | 8.0 | 12.0 | 0.00 | 0.07 | 0.07 | 85 | 1008.1 |
| 20260901191727 | 64 | 235 | 4.0 | 12.0 | 0.00 | 0.07 | 0.07 | 84 | 1008.2 |
| 20260901191227 | 64 | 246 | 1.0 | 12.0 | 0.00 | 0.07 | 0.07 | 85 | 1008.2 |
| 20260901190727 | 64 | 264 | 4.0 | 12.0 | 0.00 | 0.07 | 0.07 | 85 | 1008.3 |
| 20260901190227 | 64 | 219 | 7.0 | 11.0 | 0.00 | 0.07 | 0.07 | 86 | 1008.2 |
| 20260901185727 | 64 | 274 | 6.0 | 9.0 | 0.00 | 0.07 | 0.07 | 87 | 1008.2 |
| 20260901185227 | 63 | 278 | 6.0 | 11.0 | 0.00 | 0.07 | 0.07 | 87 | 1008.2 |
| 20260901184727 | 63 | 271 | 1.0 | 11.0 | 0.00 | 0.07 | 0.07 | 87 | 1008.3 |
| 20260901184227 | 63 | 194 | 4.0 | 11.0 | 0.00 | 0.07 | 0.07 | 87 | 1008.3 |
| 20260901183727 | 63 | 197 | 3.0 | 11.0 | 0.00 | 0.07 | 0.07 | 87 | 1008.3 |
| 20260901183227 | 63 | 233 | 0.0 | 11.0 | 0.00 | 0.07 | 0.07 | 89 | 1008.3 |
| 20260901182727 | 63 | 245 | 5.0 | 11.0 | 0.00 | 0.07 | 0.07 | 90 | 1008.2 |
| 20260901182227 | 63 | 235 | 6.0 | 9.0 | 0.00 | 0.07 | 0.07 | 91 | 1008.2 |
| 20260901181727 | 63 | 291 | 2.0 | 8.0 | 0.00 | 0.07 | 0.07 | 92 | 1008.2 |
| 20260901181227 | 63 | 226 | 0.0 | 8.0 | 0.00 | 0.07 | 0.07 | 91 | 1008.2 |
| 20260901180727 | 63 | 261 | 0.0 | 8.0 | 0.00 | 0.07 | 0.07 | 91 | 1008.2 |
| 20260901180227 | 63 | 243 | 3.0 | 13.0 | 0.00 | 0.07 | 0.07 | 92 | 1008.2 |
| 20260901175727 | 63 | 280 | 1.0 | 13.0 | 0.00 | 0.07 | 0.07 | 92 | 1008.2 |
| 20260901175227 | 64 | 243 | 7.0 | 13.0 | 0.00 | 0.07 | 0.07 | 93 | 1008.2 |
| 20260901174727 | 64 | 277 | 4.0 | 6.0 | 0.00 | 0.07 | 0.07 | 95 | 1008.2 |
| 20260901174227 | 64 | 235 | 1.0 | 2.0 | 0.00 | 0.07 | 0.07 | 96 | 1008.1 |
| 20260901173727 | 64 | 0 | 0.0 | 0.0 | 0.00 | 0.07 | 0.07 | 96 | 1008.1 |
| 20260901173227 | 64 | 0 | 0.0 | 0.0 | 0.00 | 0.07 | 0.07 | 97 | 1008.1 |
| 20260901172819 | 64 | 0 | 0.0 | 0.0 | 0.00 | 0.07 | 0.07 | 97 | 1008.0 |
| 20260901172727 | 64 | 0 | 0.0 | 0.0 | 0.00 | 0.07 | 0.07 | 97 | 1008.0 |
| 20260901172227 | 64 | 0 | 0.0 | 0.0 | 0.00 | 0.07 | 0.07 | 97 | 1007.9 |
| 20260901171727 | 64 | 0 | 0.0 | 0.0 | 0.00 | 0.07 | 0.07 | 98 | 1007.8 |
| 20260901171227 | 63 | 0 | 0.0 | 0.0 | 0.00 | 0.07 | 0.07 | 98 | 1007.8 |
| 20260901170727 | 63 | 0 | 0.0 | 0.0 | 0.00 | 0.07 | 0.07 | 99 | 1007.9 |
| 20260901170227 | 63 | 0 | 0.0 | 0.0 | 0.00 | 0.07 | 0.07 | 99 | 1007.9 |
| 20260901165727 | 62 | 0 | 0.0 | 0.0 | 0.00 | 0.07 | 0.07 | 99 | 1008.0 |
| 20260901165227 | 62 | 0 | 0.0 | 0.0 | 0.00 | 0.07 | 0.07 | 99 | 1007.9 |
| 20260901164727 | 61 | 0 | 0.0 | 0.0 | 0.00 | 0.07 | 0.07 | 99 | 1007.9 |
| 20260901164227 | 61 | 0 | 0.0 | 0.0 | 0.00 | 0.07 | 0.07 | 99 | 1008.0 |
| 20260901163727 | 61 | 0 | 0.0 | 0.0 | 0.00 | 0.07 | 0.07 | 99 | 1008.0 |
| 20260901163229 | 61 | 0 | 0.0 | 0.0 | 0.00 | 0.07 | 0.07 | 99 | 1008.0 |
| 20260901162727 | 61 | 0 | 0.0 | 0.0 | 0.00 | 0.07 | 0.07 | 99 | 1008.0 |
| 20260901162227 | 61 | 0 | 0.0 | 0.0 | 0.00 | 0.07 | 0.07 | 99 | 1008.0 |
| 20260901161727 | 61 | 0 | 0.0 | 0.0 | 0.00 | 0.07 | 0.07 | 99 | 1008.1 |
| 20260901161228 | 61 | 0 | 0.0 | 0.0 | 0.00 | 0.07 | 0.07 | 99 | 1008.1 |
| 20260901160727 | 60 | 0 | 0.0 | 0.0 | 0.00 | 0.07 | 0.07 | 99 | 1008.1 |
| 20260901160227 | 60 | 0 | 0.0 | 0.0 | 0.01 | 0.07 | 0.07 | 99 | 1008.0 |
| 20260901155727 | 60 | 0 | 0.0 | 0.0 | 0.01 | 0.07 | 0.07 | 99 | 1008.0 |
| 20260901155227 | 60 | 0 | 0.0 | 0.0 | 0.02 | 0.07 | 0.07 | 99 | 1008.0 |
| 20260901154727 | 60 | 0 | 0.0 | 0.0 | 0.02 | 0.07 | 0.07 | 99 | 1008.0 |
| 20260901154227 | 60 | 0 | 0.0 | 0.0 | 0.03 | 0.07 | 0.07 | 99 | 1008.0 |
| 20260901153727 | 60 | 0 | 0.0 | 0.0 | 0.03 | 0.07 | 0.07 | 99 | 1008.1 |
| 20260901153227 | 60 | 0 | 0.0 | 0.0 | 0.04 | 0.07 | 0.07 | 99 | 1008.0 |
| 20260901152727 | 60 | 0 | 0.0 | 0.0 | 0.04 | 0.07 | 0.07 | 99 | 1008.0 |
| 20260901152227 | 59 | 0 | 0.0 | 0.0 | 0.04 | 0.07 | 0.07 | 99 | 1008.1 |
| 20260901151727 | 59 | 0 | 0.0 | 0.0 | 0.04 | 0.07 | 0.07 | 99 | 1008.0 |
| 20260901151227 | 59 | 0 | 0.0 | 0.0 | 0.04 | 0.07 | 0.07 | 99 | 1008.0 |
| 20260901150727 | 60 | 0 | 0.0 | 2.0 | 0.04 | 0.07 | 0.07 | 99 | 1008.1 |
| 20260901150227 | 59 | 0 | 0.0 | 2.0 | 0.03 | 0.06 | 0.06 | 99 | 1008.0 |
| 20260901145727 | 59 | 176 | 0.0 | 2.0 | 0.03 | 0.06 | 0.06 | 99 | 1007.9 |
| 20260901145227 | 59 | 0 | 0.0 | 0.0 | 0.02 | 0.06 | 0.06 | 99 | 1007.9 |
| 20260901144727 | 59 | 0 | 0.0 | 0.0 | 0.02 | 0.05 | 0.05 | 99 | 1008.0 |
| 20260901144227 | 59 | 0 | 0.0 | 0.0 | 0.01 | 0.04 | 0.04 | 99 | 1007.9 |
| 20260901143727 | 59 | 0 | 0.0 | 0.0 | 0.01 | 0.04 | 0.04 | 99 | 1007.9 |
| 20260901143227 | 59 | 0 | 0.0 | 0.0 | 0.00 | 0.04 | 0.04 | 99 | 1007.9 |
| 20260901142727 | 59 | 0 | 0.0 | 0.0 | 0.00 | 0.03 | 0.03 | 99 | 1007.9 |
| 20260901142227 | 59 | 0 | 0.0 | 0.0 | 0.01 | 0.03 | 0.03 | 99 | 1007.8 |
| 20260901141820 | 59 | 0 | 0.0 | 0.0 | 0.01 | 0.03 | 0.03 | 99 | 1007.8 |
| 20260901141728 | 59 | 0 | 0.0 | 0.0 | 0.01 | 0.03 | 0.03 | 99 | 1007.8 |
| 20260901141227 | 59 | 0 | 0.0 | 0.0 | 0.01 | 0.03 | 0.03 | 99 | 1007.7 |
| 20260901140727 | 59 | 0 | 0.0 | 0.0 | 0.01 | 0.03 | 0.03 | 99 | 1007.6 |
| 20260901140227 | 59 | 0 | 0.0 | 0.0 | 0.01 | 0.03 | 0.03 | 98 | 1007.6 |
| 20260901135727 | 59 | 0 | 0.0 | 0.0 | 0.01 | 0.03 | 0.03 | 98 | 1007.6 |
| 20260901135227 | 59 | 0 | 0.0 | 0.0 | 0.02 | 0.03 | 0.03 | 98 | 1007.5 |
| 20260901134727 | 59 | 0 | 0.0 | 0.0 | 0.02 | 0.03 | 0.03 | 98 | 1007.6 |
| 20260901134227 | 59 | 0 | 0.0 | 0.0 | 0.02 | 0.03 | 0.03 | 98 | 1007.5 |
| 20260901133727 | 59 | 0 | 0.0 | 0.0 | 0.02 | 0.03 | 0.03 | 98 | 1007.5 |
| 20260901133227 | 59 | 0 | 0.0 | 0.0 | 0.02 | 0.03 | 0.03 | 98 | 1007.4 |
| 20260901132727 | 59 | 0 | 0.0 | 0.0 | 0.02 | 0.03 | 0.03 | 98 | 1007.4 |
| 20260901132229 | 59 | 0 | 0.0 | 0.0 | 0.01 | 0.02 | 0.02 | 98 | 1007.4 |
| 20260901131727 | 59 | 0 | 0.0 | 0.0 | 0.01 | 0.02 | 0.02 | 98 | 1007.4 |
| 20260901131227 | 59 | 0 | 0.0 | 0.0 | 0.01 | 0.02 | 0.02 | 97 | 1007.4 |
| 20260901130727 | 59 | 0 | 0.0 | 0.0 | 0.01 | 0.02 | 0.02 | 97 | 1007.4 |
| 20260901130230 | 59 | 0 | 0.0 | 0.0 | 0.01 | 0.02 | 0.02 | 97 | 1007.4 |
| 20260901125727 | 59 | 0 | 0.0 | 0.0 | 0.01 | 0.02 | 0.02 | 97 | 1007.4 |
| 20260901125227 | 59 | 0 | 0.0 | 0.0 | 0.00 | 0.01 | 0.01 | 97 | 1007.4 |
| 20260901124727 | 59 | 0 | 0.0 | 0.0 | 0.00 | 0.01 | 0.01 | 97 | 1007.4 |
| 20260901124227 | 59 | 0 | 0.0 | 0.0 | 0.01 | 0.01 | 0.01 | 97 | 1007.4 |
| 20260901123727 | 59 | 0 | 0.0 | 0.0 | 0.01 | 0.01 | 0.01 | 97 | 1007.4 |
| 20260901123227 | 59 | 0 | 0.0 | 0.0 | 0.01 | 0.01 | 0.01 | 97 | 1007.3 |
| 20260901122727 | 59 | 0 | 0.0 | 0.0 | 0.01 | 0.01 | 0.01 | 96 | 1007.3 |
| 20260901122227 | 59 | 0 | 0.0 | 0.0 | 0.01 | 0.01 | 0.01 | 96 | 1007.3 |
| 20260901121727 | 59 | 0 | 0.0 | 0.0 | 0.01 | 0.01 | 0.01 | 96 | 1007.4 |
| 20260901121228 | 60 | 0 | 0.0 | 0.0 | 0.01 | 0.01 | 0.01 | 96 | 1007.5 |
| 20260901120727 | 60 | 0 | 0.0 | 0.0 | 0.01 | 0.01 | 0.01 | 96 | 1007.4 |
| 20260901120227 | 60 | 0 | 0.0 | 0.0 | 0.01 | 0.01 | 0.01 | 96 | 1007.5 |
| 20260901115727 | 60 | 0 | 0.0 | 0.0 | 0.01 | 0.01 | 0.01 | 96 | 1007.5 |
| 20260901115227 | 60 | 0 | 0.0 | 0.0 | 0.01 | 0.01 | 0.01 | 96 | 1007.5 |
| 20260901114727 | 60 | 0 | 0.0 | 5.0 | 0.01 | 0.01 | 0.01 | 96 | 1007.5 |
| 20260901114227 | 60 | 0 | 0.0 | 5.0 | 0.00 | 0.01 | 0.01 | 96 | 1007.5 |
| 20260901113727 | 60 | 238 | 0.0 | 5.0 | 0.00 | 0.01 | 0.01 | 96 | 1007.5 |
| 20260901113227 | 60 | 0 | 0.0 | 0.0 | 0.00 | 0.00 | 0.00 | 96 | 1007.5 |
| 20260901112727 | 60 | 0 | 0.0 | 0.0 | 0.00 | 0.00 | 0.00 | 96 | 1007.5 |
| 20260901112228 | 60 | 0 | 0.0 | 0.0 | 0.00 | 0.00 | 0.00 | 95 | 1007.5 |
| 20260901111727 | 60 | 0 | 0.0 | 0.0 | 0.00 | 0.00 | 0.00 | 95 | 1007.6 |
| 20260901111227 | 61 | 0 | 0.0 | 0.0 | 0.00 | 0.00 | 0.00 | 95 | 1007.5 |
| 20260901110838 | 61 | 0 | 0.0 | 0.0 | 0.00 | 0.00 | 0.00 | 95 | 1007.5 |
| 20260901110727 | 61 | 0 | 0.0 | 0.0 | 0.00 | 0.00 | 0.00 | 95 | 1007.5 |
| 20260901110316 | 61 | 0 | 0.0 | 0.0 | 0.00 | 0.00 | 0.00 | 95 | 1007.5 |
| 20260901110227 | 61 | 0 | 0.0 | 0.0 | 0.00 | 0.00 | 0.00 | 95 | 1007.5 |
| 20260901105727 | 60 | 0 | 0.0 | 0.0 | 0.00 | 0.00 | 0.00 | 95 | 1007.5 |
| 20260901105227 | 60 | 0 | 0.0 | 0.0 | 0.00 | 0.00 | 0.00 | 95 | 1007.5 |
| 20260901104727 | 60 | 0 | 0.0 | 0.0 | 0.00 | 0.00 | 0.00 | 95 | 1007.5 |
| 20260901104227 | 60 | 0 | 0.0 | 0.0 | 0.00 | 0.00 | 0.00 | 95 | 1007.4 |
| 20260901103727 | 60 | 0 | 0.0 | 0.0 | 0.00 | 0.00 | 0.00 | 95 | 1007.5 |
| 20260901103228 | 60 | 0 | 0.0 | 0.0 | 0.00 | 0.00 | 0.00 | 95 | 1007.4 |
| 20260901102727 | 60 | 0 | 0.0 | 0.0 | 0.00 | 0.00 | 0.00 | 95 | 1007.4 |
| 20260901102228 | 60 | 0 | 0.0 | 0.0 | 0.00 | 0.00 | 0.00 | 95 | 1007.4 |
| 20260901101727 | 60 | 0 | 0.0 | 0.0 | 0.00 | 0.00 | 0.00 | 94 | 1007.4 |
| 20260901101227 | 60 | 0 | 0.0 | 0.0 | 0.00 | 0.00 | 0.00 | 94 | 1007.4 |
| 20260901100727 | 60 | 0 | 0.0 | 0.0 | 0.00 | 0.00 | 0.00 | 94 | 1007.4 |
| 20260901100227 | 60 | 0 | 0.0 | 0.0 | 0.00 | 0.00 | 0.00 | 94 | 1007.4 |
| 20260901095727 | 60 | 0 | 0.0 | 0.0 | 0.00 | 0.00 | 0.00 | 94 | 1007.4 |
| 20260901095228 | 60 | 0 | 0.0 | 0.0 | 0.00 | 0.00 | 0.00 | 93 | 1007.4 |
| 20260901094727 | 60 | 0 | 0.0 | 0.0 | 0.00 | 0.00 | 0.00 | 93 | 1007.4 |
| 20260901094228 | 60 | 0 | 0.0 | 0.0 | 0.00 | 0.00 | 0.00 | 93 | 1007.5 |
| 20260901093727 | 60 | 0 | 0.0 | 0.0 | 0.00 | 0.00 | 0.00 | 93 | 1007.5 |
| 20260901093227 | 60 | 0 | 0.0 | 0.0 | 0.00 | 0.00 | 0.00 | 93 | 1007.5 |
| 20260901092727 | 60 | 0 | 0.0 | 0.0 | 0.00 | 0.00 | 0.00 | 92 | 1007.4 |
| 20260901092228 | 60 | 0 | 0.0 | 0.0 | 0.00 | 0.00 | 0.00 | 92 | 1007.5 |
| 20260901091727 | 60 | 0 | 0.0 | 0.0 | 0.00 | 0.00 | 0.00 | 92 | 1007.4 |
| 20260901091229 | 60 | 0 | 0.0 | 0.0 | 0.00 | 0.00 | 0.00 | 92 | 1007.5 |
| 20260901090844 | 60 | 0 | 0.0 | 0.0 | 0.00 | 0.00 | 0.00 | 92 | 1007.5 |
| 20260901090727 | 60 | 0 | 0.0 | 0.0 | 0.00 | 0.00 | 0.00 | 92 | 1007.5 |
| 20260901090227 | 60 | 0 | 0.0 | 0.0 | 0.00 | 0.00 | 0.00 | 92 | 1007.5 |
| 20260901085727 | 60 | 0 | 0.0 | 0.0 | 0.00 | 0.00 | 0.00 | 92 | 1007.5 |
| 20260901085228 | 60 | 0 | 0.0 | 0.0 | 0.00 | 0.00 | 0.00 | 92 | 1007.5 |
| 20260901084727 | 60 | 0 | 0.0 | 0.0 | 0.00 | 0.00 | 0.00 | 91 | 1007.5 |
| 20260901084227 | 60 | 0 | 0.0 | 0.0 | 0.00 | 0.00 | 0.00 | 91 | 1007.5 |
| 20260901083727 | 60 | 0 | 0.0 | 0.0 | 0.00 | 0.00 | 0.00 | 91 | 1007.5 |
| 20260901083227 | 61 | 0 | 0.0 | 0.0 | 0.00 | 0.00 | 0.00 | 91 | 1007.5 |
| 20260901082727 | 61 | 0 | 0.0 | 0.0 | 0.00 | 0.00 | 0.00 | 91 | 1007.6 |
| 20260901082228 | 61 | 0 | 0.0 | 0.0 | 0.00 | 0.00 | 0.00 | 91 | 1007.6 |
| 20260901081727 | 61 | 0 | 0.0 | 0.0 | 0.00 | 0.00 | 0.00 | 91 | 1007.5 |
| 20260901081229 | 61 | 0 | 0.0 | 0.0 | 0.00 | 0.00 | 0.00 | 91 | 1007.5 |
| 20260901080727 | 61 | 0 | 0.0 | 0.0 | 0.00 | 0.00 | 0.00 | 91 | 1007.5 |
| 20260901080227 | 61 | 0 | 0.0 | 0.0 | 0.00 | 0.00 | 0.00 | 91 | 1007.5 |
| 20260901075727 | 61 | 0 | 0.0 | 0.0 | 0.00 | 0.00 | 0.00 | 91 | 1007.5 |
| 20260901075227 | 61 | 0 | 0.0 | 0.0 | 0.00 | 0.00 | 0.00 | 91 | 1007.5 |
| 20260901074727 | 61 | 0 | 0.0 | 0.0 | 0.00 | 0.00 | 0.00 | 91 | 1007.5 |
| 20260901074228 | 61 | 0 | 0.0 | 0.0 | 0.00 | 0.00 | 0.00 | 91 | 1007.5 |
| 20260901073727 | 61 | 0 | 0.0 | 0.0 | 0.00 | 0.00 | 0.00 | 91 | 1007.5 |
| 20260901073228 | 61 | 0 | 0.0 | 0.0 | 0.00 | 0.00 | 0.00 | 90 | 1007.5 |
| 20260901072727 | 61 | 0 | 0.0 | 0.0 | 0.00 | 0.00 | 0.00 | 90 | 1007.5 |
| 20260901072227 | 61 | 0 | 0.0 | 0.0 | 0.00 | 0.00 | 0.00 | 90 | 1007.4 |
| 20260901071727 | 61 | 0 | 0.0 | 0.0 | 0.00 | 0.00 | 0.00 | 90 | 1007.4 |
| 20260901071227 | 61 | 0 | 0.0 | 0.0 | 0.00 | 0.00 | 0.00 | 89 | 1007.4 |
| 20260901070728 | 61 | 0 | 0.0 | 4.0 | 0.00 | 0.00 | 0.00 | 89 | 1007.4 |
| 20260901070228 | 61 | 0 | 0.0 | 4.0 | 0.00 | 0.00 | 0.00 | 89 | 1007.4 |
| 20260901065727 | 61 | 205 | 0.0 | 4.0 | 0.00 | 0.00 | 0.00 | 89 | 1007.4 |
| 20260901065227 | 61 | 205 | 0.0 | 2.0 | 0.00 | 0.00 | 0.00 | 89 | 1007.4 |
| 20260901064727 | 61 | 250 | 0.0 | 4.0 | 0.00 | 0.00 | 0.00 | 88 | 1007.4 |
| 20260901064227 | 61 | 0 | 0.0 | 4.0 | 0.00 | 0.00 | 0.00 | 88 | 1007.3 |
| 20260901063727 | 61 | 235 | 0.0 | 4.0 | 0.00 | 0.00 | 0.00 | 88 | 1007.4 |
| 20260901063229 | 62 | 0 | 0.0 | 0.0 | 0.00 | 0.00 | 0.00 | 88 | 1007.4 |
| 20260901062727 | 61 | 0 | 0.0 | 0.0 | 0.00 | 0.00 | 0.00 | 88 | 1007.4 |
| 20260901062227 | 61 | 0 | 0.0 | 0.0 | 0.00 | 0.00 | 0.00 | 88 | 1007.4 |
| 20260901061727 | 61 | 0 | 0.0 | 5.0 | 0.00 | 0.00 | 0.00 | 87 | 1007.4 |
| 20260901061227 | 61 | 0 | 0.0 | 5.0 | 0.00 | 0.00 | 0.00 | 87 | 1007.4 |
| 20260901060727 | 62 | 259 | 0.0 | 5.0 | 0.00 | 0.00 | 0.00 | 87 | 1007.4 |
| 20260901060229 | 62 | 0 | 0.0 | 0.0 | 0.00 | 0.00 | 0.00 | 87 | 1007.4 |
| 20260901055727 | 62 | 0 | 0.0 | 0.0 | 0.00 | 0.00 | 0.00 | 86 | 1007.4 |
| 20260901055227 | 62 | 0 | 0.0 | 0.0 | 0.00 | 0.00 | 0.00 | 86 | 1007.4 |
| 20260901054727 | 62 | 0 | 0.0 | 0.0 | 0.00 | 0.00 | 0.00 | 86 | 1007.4 |
| 20260901054227 | 62 | 0 | 0.0 | 0.0 | 0.00 | 0.00 | 0.00 | 85 | 1007.3 |
| 20260901053727 | 62 | 0 | 0.0 | 0.0 | 0.00 | 0.00 | 0.00 | 85 | 1007.3 |
| 20260901053227 | 62 | 0 | 0.0 | 5.0 | 0.00 | 0.00 | 0.00 | 84 | 1007.3 |
| 20260901052727 | 62 | 0 | 0.0 | 5.0 | 0.00 | 0.00 | 0.00 | 84 | 1007.3 |
| 20260901052227 | 63 | 228 | 0.0 | 5.0 | 0.00 | 0.00 | 0.00 | 83 | 1007.3 |
| 20260901051727 | 63 | 205 | 1.0 | 2.0 | 0.00 | 0.00 | 0.00 | 83 | 1007.4 |
| 20260901051227 | 63 | 0 | 0.0 | 0.0 | 0.00 | 0.00 | 0.00 | 83 | 1007.3 |
| 20260901050727 | 63 | 0 | 0.0 | 0.0 | 0.00 | 0.00 | 0.00 | 83 | 1007.4 |
| 20260901050227 | 63 | 0 | 0.0 | 0.0 | 0.00 | 0.00 | 0.00 | 83 | 1007.3 |
| 20260901045726 | 63 | 0 | 0.0 | 0.0 | 0.00 | 0.00 | 0.00 | 83 | 1007.2 |
| 20260901045227 | 63 | 0 | 0.0 | 0.0 | 0.00 | 0.00 | 0.00 | 83 | 1007.2 |
| 20260901044727 | 63 | 0 | 0.0 | 0.0 | 0.00 | 0.00 | 0.00 | 83 | 1007.2 |
| 20260901044227 | 63 | 0 | 0.0 | 0.0 | 0.00 | 0.00 | 0.00 | 83 | 1007.2 |
| 20260901043727 | 63 | 0 | 0.0 | 0.0 | 0.00 | 0.00 | 0.00 | 83 | 1007.3 |
| 20260901043227 | 63 | 0 | 0.0 | 0.0 | 0.00 | 0.00 | 0.00 | 83 | 1007.3 |
| 20260901042727 | 63 | 0 | 0.0 | 0.0 | 0.00 | 0.00 | 0.00 | 83 | 1007.3 |
| 20260901042227 | 64 | 0 | 0.0 | 0.0 | 0.00 | 0.00 | 0.00 | 83 | 1007.4 |
| 20260901041727 | 64 | 0 | 0.0 | 0.0 | 0.00 | 0.00 | 0.00 | 82 | 1007.3 |
| 20260901041227 | 64 | 0 | 0.0 | 0.0 | 0.00 | 0.00 | 0.00 | 82 | 1007.3 |
| 20260901040727 | 64 | 0 | 0.0 | 0.0 | 0.00 | 0.00 | 0.00 | 82 | 1007.3 |
| 20260901040227 | 64 | 0 | 0.0 | 0.0 | 0.00 | 0.00 | 0.00 | 82 | 1007.2 |
| 20260901035727 | 64 | 0 | 0.0 | 0.0 | 0.00 | 0.00 | 0.00 | 82 | 1007.2 |
| 20260901035227 | 64 | 0 | 0.0 | 0.0 | 0.00 | 0.00 | 0.00 | 82 | 1007.1 |
| 20260901034727 | 64 | 0 | 0.0 | 0.0 | 0.00 | 0.00 | 0.00 | 82 | 1007.0 |
| 20260901034227 | 64 | 0 | 0.0 | 0.0 | 0.00 | 0.00 | 0.00 | 82 | 1007.0 |
| 20260901033727 | 64 | 0 | 0.0 | 0.0 | 0.00 | 0.00 | 0.00 | 81 | 1006.9 |
| 20260901033227 | 64 | 0 | 0.0 | 0.0 | 0.00 | 0.00 | 0.00 | 81 | 1006.8 |
| 20260901032727 | 64 | 0 | 0.0 | 7.0 | 0.00 | 0.00 | 0.00 | 81 | 1006.9 |
| 20260901032227 | 64 | 0 | 0.0 | 7.0 | 0.00 | 0.00 | 0.00 | 81 | 1006.7 |
| 20260901031727 | 64 | 355 | 0.0 | 7.0 | 0.00 | 0.00 | 0.00 | 81 | 1006.6 |
| 20260901031227 | 64 | 0 | 0.0 | 0.0 | 0.00 | 0.00 | 0.00 | 80 | 1006.6 |
| 20260901030727 | 64 | 0 | 0.0 | 0.0 | 0.00 | 0.00 | 0.00 | 80 | 1006.6 |
| 20260901030227 | 64 | 0 | 0.0 | 0.0 | 0.00 | 0.00 | 0.00 | 80 | 1006.6 |
| 20260901025727 | 64 | 0 | 0.0 | 0.0 | 0.00 | 0.00 | 0.00 | 80 | 1006.7 |
| 20260901025227 | 64 | 0 | 0.0 | 7.0 | 0.00 | 0.00 | 0.00 | 80 | 1006.8 |
| 20260901024727 | 64 | 0 | 0.0 | 7.0 | 0.00 | 0.00 | 0.00 | 80 | 1006.7 |
| 20260901024229 | 64 | 338 | 0.0 | 7.0 | 0.00 | 0.00 | 0.00 | 80 | 1006.6 |
| 20260901023727 | 64 | 341 | 2.0 | 11.0 | 0.00 | 0.00 | 0.00 | 80 | 1006.6 |
| 20260901023227 | 64 | 355 | 5.0 | 11.0 | 0.00 | 0.00 | 0.00 | 80 | 1006.5 |
| 20260901022727 | 64 | 357 | 6.0 | 11.0 | 0.00 | 0.00 | 0.00 | 79 | 1006.5 |
| 20260901022227 | 64 | 336 | 6.0 | 11.0 | 0.00 | 0.00 | 0.00 | 79 | 1006.4 |
| 20260901021727 | 64 | 343 | 8.0 | 15.0 | 0.00 | 0.00 | 0.00 | 79 | 1006.4 |
| 20260901021229 | 64 | 352 | 7.0 | 15.0 | 0.00 | 0.00 | 0.00 | 78 | 1006.4 |
| 20260901020727 | 65 | 2 | 8.0 | 15.0 | 0.00 | 0.00 | 0.00 | 78 | 1006.4 |
| 20260901020227 | 65 | 348 | 8.0 | 13.0 | 0.00 | 0.00 | 0.00 | 78 | 1006.4 |
| 20260901015727 | 65 | 352 | 7.0 | 14.0 | 0.00 | 0.00 | 0.00 | 78 | 1006.2 |
| 20260901015226 | 65 | 355 | 7.0 | 14.0 | 0.00 | 0.00 | 0.00 | 77 | 1006.2 |
| 20260901014727 | 66 | 343 | 4.0 | 14.0 | 0.00 | 0.00 | 0.00 | 76 | 1006.1 |
| 20260901014229 | 66 | 345 | 6.0 | 13.0 | 0.00 | 0.00 | 0.00 | 76 | 1006.0 |
| 20260901013726 | 66 | 352 | 7.0 | 13.0 | 0.00 | 0.00 | 0.00 | 75 | 1006.0 |
| 20260901013226 | 67 | 350 | 7.0 | 12.0 | 0.00 | 0.00 | 0.00 | 74 | 1006.0 |
| 20260901012726 | 67 | 343 | 9.0 | 10.0 | 0.00 | 0.00 | 0.00 | 74 | 1006.0 |
| 20260901012226 | 68 | 348 | 6.0 | 10.0 | 0.00 | 0.00 | 0.00 | 73 | 1006.0 |
| 20260901011726 | 68 | 345 | 6.0 | 9.0 | 0.00 | 0.00 | 0.00 | 73 | 1006.0 |
| 20260901011227 | 68 | 357 | 5.0 | 6.0 | 0.00 | 0.00 | 0.00 | 72 | 1006.1 |
| 20260901010726 | 68 | 334 | 0.0 | 4.0 | 0.00 | 0.00 | 0.00 | 72 | 1006.2 |
| 20260901010226 | 68 | 333 | 0.0 | 4.0 | 0.00 | 0.00 | 0.00 | 71 | 1006.4 |
| 20260901005726 | 68 | 330 | 0.0 | 5.0 | 0.00 | 0.00 | 0.00 | 70 | 1006.4 |
| 20260901005226 | 69 | 341 | 1.0 | 5.0 | 0.00 | 0.00 | 0.00 | 70 | 1006.5 |
| 20260901004726 | 69 | 317 | 1.0 | 5.0 | 0.00 | 0.00 | 0.00 | 69 | 1006.2 |
| 20260901004226 | 70 | 0 | 0.0 | 6.0 | 0.00 | 0.00 | 0.00 | 69 | 1006.4 |
| 20260901003726 | 70 | 350 | 0.0 | 6.0 | 0.00 | 0.00 | 0.00 | 68 | 1006.4 |
| 20260901003226 | 70 | 330 | 0.0 | 6.0 | 0.00 | 0.00 | 0.00 | 68 | 1006.4 |
| 20260901002726 | 71 | 308 | 1.0 | 7.0 | 0.00 | 0.00 | 0.00 | 67 | 1006.4 |
| 20260901002227 | 71 | 326 | 4.0 | 7.0 | 0.00 | 0.00 | 0.00 | 67 | 1006.4 |
| 20260901001726 | 71 | 330 | 2.0 | 7.0 | 0.00 | 0.00 | 0.00 | 66 | 1006.4 |
| 20260901001227 | 71 | 341 | 3.0 | 10.0 | 0.00 | 0.00 | 0.00 | 66 | 1006.5 |
| 20260901000726 | 72 | 357 | 3.0 | 10.0 | 0.00 | 0.00 | 0.00 | 65 | 1006.4 |
| 20260901000226 | 72 | 329 | 0.0 | 10.0 | 0.00 | 0.00 | 0.00 | 64 | 1006.5 |
| 20260831235726 | 72 | 324 | 4.0 | 8.0 | 0.00 | 0.00 | 0.00 | 64 | 1006.5 |
| 20260831235226 | 72 | 323 | 4.0 | 8.0 | 0.00 | 0.00 | 0.00 | 63 | 1006.5 |
| 20260831234726 | 72 | 327 | 1.0 | 7.0 | 0.00 | 0.00 | 0.00 | 62 | 1006.4 |
| 20260831234226 | 72 | 333 | 3.0 | 7.0 | 0.00 | 0.00 | 0.00 | 62 | 1006.4 |